Whiting Fld NAS, FL

2:24 PM CST on November 22, 2019 (GMT -0600)
Whiting Field Naval Air Station (North)

Weather History for KNSE - September, 2019

Change the Weather History Date:

Thursday, September 5, 2019

  Actual Average Record
Temperature  
Mean Temperature 84 °F -  
Max Temperature 96 °F 86 °F 98 °F (2013)
Min Temperature 73 °F 69 °F 66 °F (2010)
Cooling Degree Days 19    
Growing Degree Days 34 (Base 50)    
Moisture  
Dew Point 73 °F    
Average Humidity 72    
Maximum Humidity 93    
Minimum Humidity 50    
Precipitation  
Precipitation 0.00 in - - ()
Sea Level Pressure  
Sea Level Pressure 29.91 in    
Wind  
Wind Speed 5 mph (NW)    
Max Wind Speed 12 mph    
Max Gust Speed 16 mph    
Visibility 10 miles    
Events      
Averages and records for this station are not official NWS values.
T = Trace of Precipitation, MM = Missing Value Source: NWS Daily Summary

Daily Weather History Graph

Daily Weather History Graph

Search for Another Location

Airport or City:

Astronomy

Sep. 05, 2019 Rise Set
Actual Time 6:26 AM CDT 7:06 PM CDT
Civil Twilight 6:02 AM CDT 7:30 PM CDT
Nautical Twilight 5:33 AM CDT 7:59 PM CDT
Astronomical Twilight 5:04 AM CDT 8:28 PM CDT
Moon 1:05 PM CDT (9/5) 11:50 PM CDT (9/5)
Length of Visible Light 13h 28m
Length of Day
12h 39m
Waxing Crescent, 45% of the Moon is Illuminated
Sep 5
Waxing Crescent
Sep 5
First Quarter
Sep 13
Full
Sep 21
Last Quarter
Sep 28
New

Hourly Weather History & Observations

Time (CDT) Temp. Heat Index Dew Point Humidity Pressure Visibility Wind Dir Wind Speed Gust Speed Precip Events Conditions
12:56 AM 79.0 °F - 70.0 °F 74% 29.90 in 10.0 mi NNW 4.6 mph - N/A   Clear
1:56 AM 79.0 °F - 70.0 °F 74% 29.90 in 10.0 mi Variable 4.6 mph - N/A   Clear
2:56 AM 77.0 °F - 70.0 °F 79% 29.90 in 10.0 mi Variable 4.6 mph - N/A   Clear
3:56 AM 73.9 °F - 70.0 °F 87% 29.91 in 10.0 mi NW 4.6 mph - N/A   Clear
4:56 AM 75.0 °F - 70.0 °F 84% 29.92 in 10.0 mi WNW 4.6 mph - N/A   Clear
5:56 AM 73.0 °F - 70.0 °F 90% 29.93 in 10.0 mi NW 3.5 mph - N/A   Partly Cloudy
6:56 AM 73.0 °F - 71.1 °F 93% 29.94 in 10.0 mi NW 4.6 mph - N/A   Partly Cloudy
7:56 AM 79.0 °F - 72.0 °F 79% 29.95 in 10.0 mi Variable 3.5 mph - N/A   Clear
8:56 AM 82.9 °F 89.4 °F 73.9 °F 74% 29.96 in 10.0 mi NNW 5.8 mph - N/A   Clear
9:56 AM 86.0 °F 95.1 °F 75.0 °F 70% 29.96 in 10.0 mi NW 6.9 mph - N/A   Clear
10:56 AM 90.0 °F 101.3 °F 75.9 °F 63% 29.96 in 10.0 mi NNW 8.1 mph - N/A   Clear
11:56 AM 91.9 °F 103.2 °F 75.0 °F 58% 29.95 in 10.0 mi NNW 8.1 mph - N/A   Partly Cloudy
12:56 PM 93.9 °F 105.4 °F 75.0 °F 54% 29.93 in 10.0 mi Variable 5.8 mph - N/A   Partly Cloudy
1:56 PM 95.0 °F 105.2 °F 73.9 °F 50% 29.91 in 10.0 mi NW 11.5 mph - N/A   Scattered Clouds
2:56 PM 95.0 °F 105.2 °F 73.9 °F 50% 29.89 in 10.0 mi NW 6.9 mph 16.1 mph N/A   Scattered Clouds
3:56 PM 93.9 °F 103.4 °F 73.0 °F 51% 29.88 in 10.0 mi NW 8.1 mph - N/A   Scattered Clouds
4:56 PM 93.9 °F 104.0 °F 73.9 °F 52% 29.88 in 10.0 mi NW 9.2 mph - N/A   Partly Cloudy
5:56 PM 91.9 °F 101.3 °F 73.9 °F 55% 29.87 in 10.0 mi NW 8.1 mph - N/A   Partly Cloudy
6:56 PM 87.1 °F 96.3 °F 75.0 °F 67% 29.88 in 10.0 mi NW 4.6 mph - N/A   Clear
7:56 PM 82.9 °F 90.2 °F 75.0 °F 77% 29.88 in 10.0 mi WNW 5.8 mph - N/A   Clear
8:56 PM 82.0 °F 88.6 °F 75.0 °F 79% 29.89 in 10.0 mi WNW 5.8 mph - N/A   Clear
9:56 PM 81.0 °F 86.7 °F 75.0 °F 82% 29.90 in 10.0 mi NW 4.6 mph - N/A   Clear
10:45 PM 80.1 °F 85.1 °F 75.0 °F 85% 29.94 in 10.0 mi NW 4.6 mph - N/A   Clear
10:56 PM 80.1 °F 85.1 °F 75.0 °F 85% 29.90 in 10.0 mi NNW 3.5 mph - N/A   Clear
11:56 PM 80.1 °F 85.1 °F 75.0 °F 85% 29.90 in 10.0 mi NNW 3.5 mph - N/A   Clear